FENGYUN 1C DEB

Satellite information

Favourite Embed

Satellite Type and Status

DEBRISIN ORBIT

Key statistics

Satellite FENGYUN 1C DEB at a glance.

Uptime

9496

Days in orbit

Revolutions

≈ 14.4

Per day

Orbit

SSO

Sun Synchronous Orbit

Inclination

98.4

Latest

Satellite identification and parameters

Extended collection of information and parameters for FENGYUN 1C DEB.

Object identification

Identified? True

Debris? True

Object name: FENGYUN 1C DEB

International designator: 1999-025QQ

Object number (NORAD): 30087

Object ID (CCSDS): 30087

Country: PEOPLES REPUBLIC OF CHINA (PRC)

Current information (Y/N): Y

RCS size: SMALL

Orbital parameters

Period: 100.339 minutes

Inclination: 98.4025 deg

SMA: 7152.77 km

Apoapsis: 940.552 km

Periapsis: 608.718 km

RAAN: 165.5796 deg

Eccentricy: 0.0231962

Argument of periapsis: 55.6149 deg

Mean anomaly: 63.3951 deg

Mean motion: 14.35130319 rev/day

Mean motion (dot): 0.00001769 rev/day2

B* drag term: 0.00046927 1/REarth

Two-line elements (TLE)

Creation date: May 8, 2025, 3:01 a.m.

Reference frame: TEME

Reference center: EARTH

Epoch: May 7, 2025, 3 p.m. UTC

TLE line 0: 0 FENGYUN 1C DEB

TLE line 1: 1 30087U 99025QQ 25127.62568288 .00001769 00000-0 46927-3 0 9999

TLE line 2: 2 30087 98.4025 165.5796 0231962 55.6149 63.3951 14.35130319955523

Live tracking on map

Real-time ground track for satellite FENGYUN 1C DEB.

In-orbit conjunctions

A list of the most updated potential collisions computed for object FENGYUN 1C DEB.

Target Orbit TCA Probability of collision Miss distance Type
FENGYUN 1C DEB SSO 2025-03-18 01:40:00 0.0002865505 201.0 (m) DEBRIS
CZ-6A DEB LEO 2025-01-23 08:51:17 0.0001233271 654.0 (m) DEBRIS

Associated space launch

Chinese polar orbiting meteorological satellite

FENGYUN 1C DEB was lifted into orbit during the mission ‘Long March 4B | Feng Yun 1C’, on board a Long March 4B space rocket.

The launch took place on May 10, 1999, 1:33 a.m. from Launch Complex 7.

For more information about the launch, click the button.

Launch to space Long March 4B | Feng Yun 1C
Long March 4B | Feng Yun 1C

Agency: N/A

Status: Launch Successful

Launch date: May 10, 1999, 1:33 a.m. UTC

Rocket: Long March 4B

Launch pad: Launch Complex 7

Location: Taiyuan Satellite Launch Center, People's Republic of China

...

Latest news about this satellite

There are no fresh news available about this satellite. Check back as we update our databases every day.


Newsletter sign-up

Weekly statistics, charts and insights to help you stay on top of the space industry.